Regional Weather Roundup
Issued by NWS

Home | Current Version | Previous Version | Graphics & Text | Print | Product List | Glossary On
Versions: 1 2 3 4 5 6 7 8 9 10 11 12 13 14 15 16 17 18 19 20 21 22 23 24 25 26 27 28 29 30 31 32 33 34 35 36 37 38 39 40 41 42 43 44 45 46 47 48 49 50
000
ASUS43 KMPX 070401
RWRMN
WEATHER ROUNDUP FOR MINNESOTA
NATIONAL WEATHER SERVICE TWIN CITIES/CHANHASSEN MN
1100 PM CDT WED MAY 06 2015


NOTE: "FAIR" INDICATES FEW OR NO CLOUDS BELOW 12,000 FEET WITH NO
SIGNIFICANT WEATHER AND/OR OBSTRUCTIONS TO VISIBILITY. N/A MEANS
CURRENT SKY AND/OR WEATHER CONDITIONS ARE NOT AVAILABLE.

MNZ060>063-068>070-070500-
   Twin Cities Metro

CITY           SKY/WX    TMP DP  RH WIND       PRES   REMARKS
TWIN CITIES    CLOUDY    67  60  78 SE10      29.86F
ST PAUL        MOCLDY    66  61  84 SE14      29.87F
CRYSTAL        MOCLDY    68  60  75 SE13G21   29.84F
BLAINE         MOCLDY    70  61  73 SE10      29.86S
LAKEVILLE      CLOUDY    64  61  88 SE9       29.87S
EDEN PRAIRIE   MOCLDY    68  59  73 SE12      29.84F
SOUTH ST PAUL  MOCLDY    66  60  80 SE6       29.87F
LAKE ELMO      MOCLDY    64  61  88 SE9       29.89F
$$
MNZ001>005-007-008-013>017-022>024-027-028-070500-
   Northwest Minnesota

CITY           SKY/WX    TMP DP  RH WIND       PRES   REMARKS
BEMIDJI        LGT RAIN  59  57  95 SE13      29.79S
HALLOCK        CLOUDY    63  57  82 SE15      29.67F
ROSEAU         CLOUDY    61  55  82 SE13G18   29.74F
WARROAD        CLOUDY    57  54  88 E13       29.76F
THIEF RVR FALL CLOUDY    63  57  82 SE16      29.71F
CROOKSTON      CLOUDY    63  61  94 SE17      29.69S
FOSSTON        CLOUDY    61  57  88 SE12G18   29.74S
DETROIT LAKES  MOCLDY    63  61  94 SE12      29.75S
MOORHEAD       MOCLDY    64  61  88 S17G24    29.69S
PARK RAPIDS    CLOUDY    63  60  90 SE12      29.78S
MAHNOMEN       CLOUDY    63  60  90 SE12      29.72F
$$
MNZ006-009>011-018-025>026-070500-
   North Central Minnesota

CITY           SKY/WX    TMP DP  RH WIND       PRES   REMARKS
BAUDETTE       CLOUDY    59  55  87 SE14      29.79F
FLAG ISLAND    RAIN      59  55  88 E9        29.78F
INTL FALLS     LGT RAIN  58  56  93 SE8       29.85F
WASKISH        CLOUDY    61  55  82 E10       29.79F
BIG FORK       MOCLDY    61  54  77 SE7       29.85S
LONGVILLE      CLOUDY    57  54  88 SE8       29.83R
GRAND RAPIDS   CLOUDY    57  50  77 SE7       29.86S
CRANE LAKE     CLOUDY    57  52  82 SE5       29.90F
COOK           CLOUDY    59  54  82 SE9       29.89S
WALKER         LGT RAIN  59  56  92 SE5       29.80R
$$
MNZ012-019>021-037-070500-
   Northeast Minnesota

CITY           SKY/WX    TMP DP  RH WIND       PRES   REMARKS
DULUTH         MOCLDY    55  43  63 E12       29.92S
ELY            MOCLDY    57  46  67 SE10      29.92F
HIBBING        CLOUDY    58  49  72 SE8       29.89S
EVELETH        CLOUDY    57  50  77 SE5       29.91S
DULUTH HARBOR    N/A     43  37  81 E12       29.95S
TWO HARBORS    CLOUDY    57  43  58 NE6       29.92F
SILVER BAY     DRIZZLE   54  39  58 NE5       29.94F
GRAND MARAIS     N/A     47  35  63 NE8       29.98F
G MARAIS ARPRT MOCLDY    57  37  47 E7        30.00F
$$
MNZ029>031-032-039>041-046>048-054>057-064-070500-
   West Central Minnesota

CITY           SKY/WX    TMP DP  RH WIND       PRES   REMARKS
FERGUS FALLS   MOCLDY    64  61  88 S14       29.74R
WHEATON        PTCLDY    61  57  88 SE15      29.72S
MORRIS         MOCLDY    64  59  82 SE12      29.73S
ALEXANDRIA     MOCLDY    63  58  83 SE9       29.78S
ELBOW LAKE     CLOUDY    63  59  87 S13       29.74S
WADENA         MOCLDY    63  61  94 SE9       29.77F FOG
GLENWOOD       CLEAR     63  59  88 SE10      29.78F
APPLETON       PTCLDY    66  59  77 S8G17     29.73S
BENSON         PTCLDY    64  57  77 S10       29.75S
ORTONVILLE     PTCLDY    63  57  82 SE10      29.71S
MADISON        MOCLDY    64  59  82 S13       29.73S
WILLMAR        MOCLDY    66  61  82 SE12      29.79S
$$
MNZ033>034-036-042>043-049>051-058-059-070500-
   Central Minnesota

CITY           SKY/WX    TMP DP  RH WIND       PRES   REMARKS
ST CLOUD       CLOUDY    66  61  84 SE13G20   29.81F
SAUK CENTRE    CLOUDY    64  61  90 SE9       29.79S
PAYNESVILLE    PTCLDY    63  59  87 E8        29.80S
AITKIN         CLOUDY    55  50  82 E3        29.84S
PINE RIVER     RAIN      61  59  94 SE10      29.85S
BRAINERD       CLOUDY    64  59  83 SE10      29.82F
STAPLES        CLOUDY    63  61  94 SE9       29.79F
LONG PRAIRIE   CLOUDY    63  61  94 SE10      29.80S
LITTLE FALLS   MOCLDY    63  59  88 SE8       29.81F
LITCHFIELD     MOCLDY    66  63  88 SE10G16   29.81F
BUFFALO        PTCLDY    67  59  77 SE8       29.84S
MAPLE LAKE     MOCLDY    67  63  86 SE7       29.83F
$$
MNZ037-044-045-052-053-070500-
   East Central Minnesota

CITY           SKY/WX    TMP DP  RH WIND       PRES   REMARKS
PRINCETON      PTCLDY    66  61  82 SE8       29.85S
MORA           MOCLDY    64  59  82 SE7       29.88S
CAMBRIDGE      PTCLDY    68  57  68 SE8       29.84F
RUSH CITY      MOCLDY    66  58  76 SE10G18   29.87F
MOOSE LAKE     MOCLDY    48  37  66 NE5       29.87F
HINCKLEY       CLOUDY    68  59  73 SE10G16   29.88S
CLOQUET        MOCLDY    50  36  57 E8        29.91S
MCGREGOR       MOCLDY    50  46  87 E6        29.87F
$$
MNZ071>073-080-081-089-090-097-098-070500-
   Southwest Minnesota

CITY           SKY/WX    TMP DP  RH WIND       PRES   REMARKS
MONTEVIDEO     PTCLDY    66  59  77 S12       29.76R
GRANITE FALLS  MOCLDY    67  60  79 SE16      29.77S
CANBY          MOCLDY    65  58  78 SE12      29.74S
MARSHALL       MOCLDY    66  55  68 SE14G20   29.74S
REDWOOD FALLS  PTCLDY    67  59  75 SE17      29.78R
OLIVIA         CLEAR     61  55  82 SE10      29.79R
PIPESTONE      MOCLDY    64  57  77 SE16      29.73F
WINDOM         MOCLDY    66  57  72 SE20      29.79S
WORTHINGTON    CLOUDY    64  55  72 SE20G28   29.76F
JACKSON        MOCLDY    64  55  72 SE14G20   29.80F
TRACY          PTCLDY    67  58  73 S15G21    29.76S
SLAYTON        LGT RAIN  63  59  87 SE17      29.76F
$$
MNZ065>067-074>077-082>085-091>093-070500-
   South Central Minnesota

CITY           SKY/WX    TMP DP  RH WIND       PRES   REMARKS
MANKATO        PTCLDY    66  55  68 S17       29.85S
NEW ULM        CLEAR     66  57  72 SE15      29.81R
ST JAMES       PTCLDY    66  57  72 SE15G21   29.83R
FAIRMONT       CLOUDY    64  34  32 SE20      29.82S
GLENCOE        MOCLDY    69  60  74 SE14G22   29.82F
FARIBAULT      CLOUDY    66  61  82 SE12      29.87F
OWATONNA       MOCLDY    66  57  72 SE16      29.87F
WASECA         PTCLDY    64  55  72 SE15      29.88S
ALBERT LEA     PTCLDY    64  57  77 SE13      29.88F
$$
MNZ078>079-086>088-094>096-070500-
   Southeast Minnesota

CITY           SKY/WX    TMP DP  RH WIND       PRES   REMARKS
ROCHESTER      MOCLDY    64  59  83 S16       29.93F
RED WING       CLOUDY    66  61  82 SE9       29.89F
STANTON        CLOUDY    68  58  72 S14G20    29.86F
DODGE CENTER   CLOUDY    64  57  77 SE14      29.91S
WINONA         CLOUDY    63  59  88 SE3       29.94F
AUSTIN         MOCLDY    64  59  82 SE9       29.90S
PRESTON        CLOUDY    64  57  79 S13       29.94F
$$
ABBREVIATIONS USED IN REMARKS
   TC - TEMPERATURES IN CELSIUS
  WCI - WIND CHILL INDEX
   HX - HEAT INDEX
  VSB - VISIBILITY
$$



USA.gov is the U.S. government's official web portal to all federal, state and local government web resources and services.